Weather History for Leadville, CO

Change the Weather History Date:

Sunday, October 12, 2014

  Actual Average Record
Temperature  
Mean Temperature 33 °F -  
Max Temperature 41 °F 51 °F 66 °F (1991)
Min Temperature 25 °F 24 °F 7 °F (1982)
Degree Days  
Heating Degree Days 32 27  
Month to date heating degree days 309 306  
Since 1 July heating degree days 1458 1604  
Cooling Degree Days 0 0  
Month to date cooling degree days 0 0  
Year to date cooling degree days 0 0  
Moisture  
Dew Point 27 °F    
Average Humidity 74    
Maximum Humidity 100    
Minimum Humidity 48    
Precipitation  
Precipitation 0.22 in 0.03 in 0.36 in (2012)
Month to date precipitation 0.44 0.35  
Year to date precipitation 14.53 10.38  
Sea Level Pressure  
Sea Level Pressure 29.91 in    
Wind  
Wind Speed 11 mph (NNW)    
Max Wind Speed 30 mph    
Max Gust Speed 40 mph    
Visibility 4 miles    
Events Fog , Snow    
T = Trace of Precipitation, MM = Missing Value Source: NWS Daily Summary

Daily Weather History Graph

Daily Weather History Graph

Search for Another Location

Airport:

Trip Planner

Search our weather history database for the weather conditions in past years. The results will help you decide how hot, cold, wet, or windy it might be!

Date:

Astronomy

Oct. 12, 2014 Rise Set
Actual Time 7:12 AM MDT 6:30 PM MDT
Civil Twilight 6:45 AM MDT 6:57 PM MDT
Nautical Twilight 6:14 AM MDT 7:28 PM MDT
Astronomical Twilight 5:43 AM MDT 7:59 PM MDT
Moon 9:52 PM MDT (10/12) 11:35 AM MDT (10/12)
Length of Visible Light 12h 12m
Length of Day
11h 18m
Waning Gibbous, 79% of the Moon is Illuminated
Oct 12
Waning Gibbous
Oct 15
Last Quarter
Oct 23
New
Oct 30
First Quarter
Nov 6
Full

Hourly Weather History & Observations

Time (MDT) Temp. Windchill Dew Point Humidity Pressure Visibility Wind Dir Wind Speed Gust Speed Precip Events Conditions
12:53 AM 37.0 °F 31.0 °F 21.9 °F 54% 29.76 in 10.0 mi NW 8.1 mph - N/A   Clear
1:53 AM 37.0 °F 32.4 °F 23.0 °F 57% 29.70 in 10.0 mi Variable 5.8 mph - N/A   Partly Cloudy
2:53 AM 37.4 °F - 23.0 °F 56% 30.04 in 10.0 mi Calm Calm - N/A   Clear
3:53 AM 39.9 °F 33.9 °F 21.9 °F 49% 29.60 in 10.0 mi WNW 9.2 mph - N/A   Overcast
4:53 AM 35.1 °F 27.9 °F 28.9 °F 78% 29.66 in 3.0 mi NW 9.2 mph 21.9 mph 0.00 in Snow Light Snow
4:57 AM 35.1 °F 28.6 °F 30.0 °F 82% 30.01 in 2.5 mi WNW 8.1 mph - 0.00 in Snow Light Snow
5:11 AM 33.1 °F 28.7 °F 32.0 °F 96% 30.02 in 1.8 mi NNW 4.6 mph - 0.00 in Snow Light Snow
5:20 AM 32.0 °F 25.6 °F 32.0 °F 100% 30.02 in 1.0 mi NNW 6.9 mph - 0.01 in Snow Light Snow
5:29 AM 32.0 °F 28.7 °F 32.0 °F 100% 30.01 in 0.8 mi Variable 3.5 mph - 0.02 in Snow Light Snow
5:35 AM 32.0 °F - 32.0 °F 100% 30.00 in 1.2 mi Calm Calm - 0.02 in Snow Light Snow
5:40 AM 32.0 °F - 32.0 °F 100% 29.99 in 3.0 mi Calm Calm - 0.02 in Snow Light Snow
5:53 AM 32.0 °F 27.5 °F 32.0 °F 100% 29.66 in 9.0 mi ESE 4.6 mph - 0.02 in Snow Light Snow
6:53 AM 32.0 °F 26.4 °F 32.0 °F 100% 29.66 in 5.0 mi WSW 5.8 mph - 0.00 in   Overcast
7:04 AM 30.9 °F - 30.9 °F 100% 29.94 in 2.0 mi Calm Calm - 0.00 in Snow Light Snow
7:08 AM 30.9 °F 27.5 °F 30.9 °F 100% 29.94 in 0.8 mi Variable 3.5 mph - 0.00 in Snow Light Snow
7:13 AM 30.9 °F - 30.9 °F 100% 29.93 in 0.2 mi Calm Calm - 0.00 in Fog , Snow Light Snow
7:21 AM 30.9 °F 26.2 °F 30.9 °F 100% 29.92 in 0.8 mi SE 4.6 mph - 0.00 in Snow Light Snow
7:25 AM 30.9 °F 25.2 °F 30.9 °F 100% 29.92 in 2.5 mi SSE 5.8 mph - 0.00 in   Overcast
7:32 AM 30.9 °F 25.2 °F 30.9 °F 100% 29.93 in 10.0 mi South 5.8 mph - 0.00 in   Overcast
7:39 AM 32.0 °F 28.7 °F 30.9 °F 96% 29.94 in 7.0 mi WSW 3.5 mph - 0.00 in Snow Light Snow
7:42 AM 30.9 °F 26.2 °F 30.9 °F 100% 29.94 in 2.0 mi WSW 4.6 mph - 0.00 in Snow Light Snow
7:46 AM 30.9 °F - 30.9 °F 100% 29.94 in 0.8 mi Calm Calm - 0.01 in Snow Light Snow
7:53 AM 30.9 °F 26.2 °F 30.9 °F 100% 29.67 in 0.2 mi SW 4.6 mph - 0.03 in Fog , Snow Heavy Snow
7:59 AM 30.9 °F - 30.9 °F 100% 29.94 in 0.2 mi Calm Calm - 0.03 in Fog , Snow Heavy Snow
8:15 AM 30.2 °F 24.3 °F 30.2 °F 100% 29.93 in 0.2 mi South 5.8 mph - N/A Fog , Snow Snow
8:31 AM 30.9 °F 25.2 °F 30.9 °F 100% 29.92 in 0.5 mi SE 5.8 mph - 0.09 in Fog , Snow Snow
8:53 AM 32.0 °F 26.4 °F 30.9 °F 96% 29.66 in 0.8 mi SSE 5.8 mph - 0.10 in Snow Light Snow
9:05 AM 32.0 °F 25.6 °F 32.0 °F 100% 29.91 in 2.0 mi SE 6.9 mph - 0.00 in Snow Light Snow
9:13 AM 32.0 °F 25.6 °F 30.9 °F 96% 29.90 in 4.0 mi SE 6.9 mph - 0.00 in Snow Light Snow
9:39 AM 34.0 °F 31.0 °F 28.9 °F 82% 29.89 in 10.0 mi Variable 3.5 mph - 0.01 in   Overcast
9:53 AM 33.1 °F 30.0 °F 30.0 °F 89% 29.60 in 10.0 mi Variable 3.5 mph - 0.01 in   Overcast
10:04 AM 32.0 °F 24.8 °F 32.0 °F 100% 29.89 in 1.5 mi West 8.1 mph - 0.00 in Snow Light Snow
10:14 AM 32.0 °F 27.5 °F 30.9 °F 96% 29.89 in 0.5 mi WNW 4.6 mph - 0.00 in Fog , Snow Snow
10:24 AM 30.9 °F - 30.9 °F 100% 29.92 in 0.2 mi North - - 0.01 in Fog , Snow Snow
10:30 AM 28.9 °F 13.5 °F 28.9 °F 100% 29.92 in 0.2 mi North 29.9 mph 40.3 mph 0.01 in Fog , Snow Snow
10:38 AM 28.0 °F 13.9 °F 28.0 °F 100% 29.92 in 0.2 mi North 23.0 mph 40.3 mph 0.02 in Fog , Snow Heavy Snow
10:53 AM 27.0 °F 12.2 °F 26.1 °F 96% 29.71 in 0.2 mi North 24.2 mph 40.3 mph 0.03 in Fog , Snow Snow
11:07 AM 28.0 °F 14.3 °F 25.0 °F 88% 29.94 in 0.5 mi North 21.9 mph 32.2 mph 0.01 in Fog , Snow Light Snow
11:11 AM 28.0 °F 14.6 °F 24.1 °F 85% 29.95 in 2.0 mi North 20.7 mph 32.2 mph 0.01 in Snow Light Snow
11:22 AM 28.0 °F 15.7 °F 24.1 °F 85% 29.95 in 1.5 mi North 17.3 mph 32.2 mph 0.01 in Snow Light Snow
11:34 AM 28.0 °F 15.7 °F 24.1 °F 85% 29.96 in 1.0 mi North 17.3 mph 27.6 mph 0.01 in Snow Light Snow
11:50 AM 28.4 °F 16.6 °F 24.8 °F 86% 29.97 in 0.8 mi North 16.1 mph 23.0 mph 0.01 in Snow Light Snow
11:53 AM 28.0 °F 17.0 °F 24.1 °F 85% 29.76 in 0.8 mi North 13.8 mph 23.0 mph 0.01 in Snow Light Snow
12:03 PM 28.9 °F 20.4 °F 25.0 °F 85% 29.96 in 2.0 mi North 9.2 mph - 0.00 in Snow Light Snow
12:11 PM 30.0 °F 22.4 °F 24.1 °F 79% 29.95 in 8.0 mi North 8.1 mph - 0.00 in Snow Light Snow
12:49 PM 30.2 °F 18.9 °F 24.8 °F 80% 29.93 in 10.0 mi North 16.1 mph - 0.00 in   Overcast
12:53 PM 30.9 °F 21.2 °F 24.1 °F 76% 29.69 in 10.0 mi North 12.7 mph - 0.00 in   Mostly Cloudy
1:03 PM 34.0 °F 25.5 °F 25.0 °F 70% 29.93 in 10.0 mi North 11.5 mph - N/A   Mostly Cloudy
1:53 PM 34.0 °F 22.4 °F 24.1 °F 67% 29.65 in 10.0 mi North 20.7 mph 27.6 mph N/A   Mostly Cloudy
2:26 PM 32.0 °F 23.6 °F 27.0 °F 82% 29.92 in 10.0 mi NW 10.4 mph 21.9 mph N/A   Overcast
2:48 PM 30.2 °F 19.3 °F 28.4 °F 93% 29.94 in 1.8 mi NNW 15.0 mph 23.0 mph 0.00 in Snow Light Snow
2:53 PM 30.2 °F 18.5 °F 28.4 °F 93% 29.94 in 1.0 mi North 17.3 mph 26.5 mph N/A Snow Light Snow
2:59 PM 30.9 °F 22.8 °F 28.0 °F 89% 29.94 in 3.0 mi NNW 9.2 mph 26.5 mph 0.00 in Snow Light Snow
3:23 PM 33.1 °F 21.9 °F 24.1 °F 70% 29.95 in 10.0 mi North 18.4 mph 26.5 mph 0.00 in   Overcast
3:53 PM 34.0 °F 22.7 °F 25.0 °F 70% 29.68 in 10.0 mi North 19.6 mph 27.6 mph 0.00 in   Mostly Cloudy
4:41 PM 30.0 °F 17.2 °F 26.1 °F 85% 30.00 in 1.8 mi NNW 20.7 mph 34.5 mph 0.00 in Snow Light Snow
4:53 PM 28.9 °F 17.7 °F 27.0 °F 92% 29.80 in 1.0 mi North 15.0 mph 26.5 mph 0.00 in Snow Light Snow
5:03 PM 30.0 °F 18.7 °F 26.1 °F 85% 30.01 in 3.0 mi North 16.1 mph 23.0 mph 0.00 in Snow Light Snow
5:13 PM 30.9 °F 21.2 °F 26.1 °F 82% 30.02 in 8.0 mi NNW 12.7 mph 24.2 mph 0.00 in Snow Light Snow
5:53 PM 30.0 °F 18.3 °F 23.0 °F 75% 29.85 in 10.0 mi North 17.3 mph 23.0 mph 0.00 in   Scattered Clouds
6:53 PM 28.9 °F 19.8 °F 25.0 °F 85% 29.88 in 7.0 mi NNW 10.4 mph - 0.00 in Snow Light Snow
7:20 PM 28.0 °F 15.3 °F 26.1 °F 92% 30.09 in 1.8 mi North 18.4 mph 24.2 mph 0.00 in Snow Light Snow
7:31 PM 27.0 °F 16.7 °F 26.1 °F 96% 30.10 in 1.0 mi North 11.5 mph 20.7 mph 0.00 in Snow Light Snow
7:39 PM 27.0 °F 16.7 °F 26.1 °F 96% 30.10 in 0.8 mi North 11.5 mph 19.6 mph 0.01 in Snow Light Snow
7:46 PM 27.0 °F 15.2 °F 26.1 °F 96% 30.10 in 0.8 mi North 15.0 mph 19.6 mph 0.02 in Snow Light Snow
7:53 PM 27.0 °F 17.3 °F 25.0 °F 92% 29.95 in 2.5 mi North 10.4 mph - 0.02 in Snow Light Snow
8:00 PM 26.1 °F 19.4 °F 25.0 °F 96% 30.11 in 9.0 mi NW 5.8 mph - 0.00 in   Mostly Cloudy
8:53 PM 27.0 °F 17.3 °F 23.0 °F 85% 29.96 in 7.0 mi North 10.4 mph - 0.00 in Snow Light Snow
9:51 PM 26.6 °F 15.7 °F 23.0 °F 86% 30.16 in 9.0 mi North 12.7 mph - 0.00 in Snow Light Snow
9:53 PM 27.0 °F 16.1 °F 23.0 °F 85% 29.99 in 8.0 mi North 12.7 mph - 0.00 in Snow Light Snow
10:24 PM 26.1 °F 15.6 °F 24.1 °F 92% 30.17 in 9.0 mi North 11.5 mph - 0.00 in Snow Light Snow
10:53 PM 26.1 °F 15.0 °F 21.9 °F 84% 30.06 in 9.0 mi North 12.7 mph - 0.00 in   Overcast
11:53 PM 25.0 °F 14.8 °F 21.0 °F 85% 30.07 in 10.0 mi North 10.4 mph - N/A   Partly Cloudy